Temperature
1 1 1 1 2 1 1 1 1 2 2 4 4 3 3 4 4 3 4 4 4 4 4 4 4 5 5 5 5 5 4 5 5 5 5 6 6 7 7 7 7 7 8 8
0 1 1 1 2 2 2 2 2 2 2 3 3 3 3 3 3 3 3 4 4 4 4 4 4 4 4 4 4 4 4 4 4 5 5 5 6 6 6 7 7 7 7 8
1 1 1 1 2 2 2 2 1 2 3 3 2 2 2 3 3 3 3 4 4 4 4 4 4 3 4 4 4 4 3 4 4 4 4 5 5 5 6 6 6 6 7 7
0 -1 1 3 2 2 2 2 2 2 2 2 2 3 3 3 3 3 3 3 3 3 3 3 3 3 3 3 3 3 3 3 3 3 4 4 5 5 5 6 6 6 6 7
-0 -1 -0 1 2 1 1 1 2 1 2 2 2 2 2 4 4 3 3 3 3 3 3 3 3 3 3 3 3 3 3 3 3 3 3 4 4 5 5 5 5 6 6 6
-0 -0 0 2 2 1 1 1 2 1 1 1 1 0 1 4 4 3 3 3 3 2 2 3 2 2 2 2 2 2 2 2 3 3 3 3 4 4 4 5 5 5 5 6
-0 -0 0 1 1 1 1 1 2 2 1 1 0 1 3 3 3 3 3 3 2 2 2 2 2 2 2 2 2 2 2 2 2 2 2 3 3 4 4 4 5 5 5 5
-1 -0 1 1 0 1 1 2 2 3 2 2 2 2 2 3 3 3 2 2 2 2 2 2 2 2 1 1 1 1 1 2 2 2 2 2 3 3 4 4 4 5 5 5
-1 1 1 1 2 2 3 2 2 3 3 2 2 2 2 2 2 2 2 2 2 2 2 2 1 1 1 1 1 1 1 1 1 2 2 2 2 3 3 3 3 4 4 4
-2 -1 -0 1 2 2 2 2 2 2 2 2 1 1 1 1 1 1 1 1 1 1 1 1 1 1 1 1 1 1 1 1 1 2 2 2 2 2 2 3 3 3 3 4
-2 -1 -1 1 2 2 2 2 2 2 1 1 1 1 1 1 1 1 1 1 1 1 1 1 1 1 1 1 1 1 1 1 1 1 2 2 2 2 2 2 2 2 3 3
-0 -0 -1 0 2 2 1 1 1 1 1 1 1 0 0 0 0 0 0 0 0 0 0 0 0 0 0 0 0 0 0 0 1 1 1 1 2 2 2 2 2 2 2 3
1 1 1 1 1 1 1 0 0 0 -0 0 0 -0 -0 -0 -0 -0 -0 -0 -0 -0 -0 -0 -0 -0 -0 -0 -0 -0 -0 0 0 1 1 1 1 1 2 2 2 2 2 2
1 0 -0 0 0 0 -0 -0 -0 -0 -0 -1 -0 -0 -1 -1 -1 -1 -0 -0 -0 -1 -1 -1 -1 -1 -1 -1 -0 -0 -0 -0 -0 0 0 1 1 1 1 1 1 2 2 2
-0 -0 -1 -0 -1 -1 -1 -1 -1 -1 -1 -1 -1 -1 -1 -1 -1 -1 -1 -1 -1 -1 -1 -1 -1 -1 -1 -1 -1 -1 -1 -1 -1 -0 -0 0 0 0 0 0 0 1 1 2
-1 -1 -1 -1 -1 -1 -2 -2 -2 -2 -2 -2 -2 -1 -2 -2 -2 -1 -1 -2 -2 -2 -2 -2 -2 -2 -2 -2 -2 -1 -1 -1 -1 -1 -1 -1 -0 -0 -0 -0 -0 0 0 1
-2 -3 -3 -3 -2 -2 -2 -3 -3 -3 -3 -2 -2 -2 -2 -2 -2 -2 -2 -2 -2 -2 -2 -2 -2 -2 -2 -2 -2 -2 -2 -2 -2 -1 -1 -1 -1 -1 -1 -1 -1 -0 -0 0
-3 -3 -3 -3 -3 -3 -3 -3 -3 -3 -3 -3 -3 -3 -3 -3 -3 -3 -3 -3 -3 -3 -3 -3 -3 -3 -3 -3 -2 -2 -2 -2 -2 -2 -2 -2 -2 -2 -2 -1 -1 -1 -1 -0
-3 -3 -3 -3 -3 -3 -3 -3 -4 -4 -4 -4 -4 -4 -4 -4 -4 -4 -4 -4 -4 -3 -3 -3 -3 -3 -3 -3 -3 -3 -3 -3 -3 -2 -2 -2 -2 -2 -2 -2 -2 -1 -1 -1
-3 -3 -3 -3 -4 -4 -4 -4 -4 -4 -4 -4 -4 -4 -4 -4 -4 -4 -4 -4 -4 -4 -4 -4 -4 -4 -4 -4 -4 -3 -3 -3 -3 -3 -3 -3 -3 -3 -3 -2 -2 -2 -1 -1
-4 -4 -4 -4 -4 -4 -4 -4 -5 -5 -5 -5 -5 -5 -5 -5 -5 -5 -5 -5 -4 -5 -5 -5 -5 -5 -4 -4 -4 -4 -4 -4 -4 -3 -3 -3 -3 -3 -3 -2 -2 -2 -2 -1
-4 -4 -4 -5 -5 -5 -5 -5 -5 -5 -5 -5 -6 -6 -6 -5 -5 -5 -5 -5 -5 -5 -5 -5 -5 -5 -5 -5 -5 -5 -5 -4 -4 -4 -4 -4 -3 -3 -3 -3 -3 -2 -2 -2
-5 -5 -5 -5 -6 -6 -6 -6 -6 -6 -6 -6 -6 -6 -6 -6 -6 -6 -6 -6 -6 -6 -6 -6 -6 -6 -6 -6 -5 -5 -5 -5 -5 -5 -4 -4 -4 -4 -4 -3 -3 -3 -2 -2
-5 -6 -6 -6 -6 -6 -6 -6 -6 -6 -7 -7 -7 -7 -7 -7 -6 -6 -6 -6 -6 -6 -6 -6 -6 -6 -6 -6 -6 -6 -6 -5 -5 -5 -5 -5 -4 -4 -4 -4 -4 -3 -3 -3
-6 -6 -6 -7 -7 -7 -7 -7 -7 -7 -7 -7 -7 -7 -7 -7 -7 -7 -7 -6 -6 -6 -6 -6 -6 -6 -6 -6 -6 -6 -6 -6 -5 -5 -5 -5 -5 -5 -4 -4 -4 -4 -3 -3
-7 -7 -7 -7 -8 -8 -8 -8 -8 -8 -8 -8 -7 -7 -7 -7 -7 -7 -7 -7 -7 -7 -7 -7 -6 -6 -6 -6 -6 -6 -6 -6 -6 -5 -5 -5 -5 -5 -5 -4 -4 -4 -3 -3
-7 -7 -8 -8 -8 -8 -8 -8 -8 -8 -8 -8 -8 -8 -8 -8 -7 -7 -7 -7 -7 -7 -7 -7 -7 -7 -7 -7 -6 -6 -6 -6 -6 -6 -6 -5 -5 -5 -5 -5 -4 -4 -4 -3
Wind_Speed
12 11 8 11 13 10 12 12 13 16 18 21 16 11 9 8 7 6 6 6 6 5 5 5 5 5 5 4 4 4 4 4 4 5 5 5 4 3 2 4 5 5 5 6
9 9 11 15 16 15 16 15 17 19 22 19 13 9 9 8 7 7 7 7 7 6 5 5 5 6 5 4 4 3 4 4 4 4 5 4 4 2 2 2 3 4 4 5
8 6 5 11 11 13 9 9 9 14 16 12 9 9 8 7 7 7 8 7 6 5 5 6 5 5 5 5 4 4 4 5 5 5 5 5 4 2 2 2 2 3 3 4
4 2 9 9 4 7 9 12 11 11 11 9 9 8 7 7 7 6 5 5 6 5 5 5 5 5 5 4 4 5 5 6 6 5 5 4 4 2 2 2 2 2 3 4
4 6 10 9 5 5 6 9 8 10 11 10 8 6 7 6 5 5 5 5 5 5 5 5 6 5 4 4 4 5 5 6 6 6 5 4 4 4 3 2 2 2 3 3
5 6 8 8 4 2 2 7 6 5 7 7 4 4 7 6 4 4 5 4 4 5 4 5 6 4 4 4 4 5 6 6 6 5 5 5 4 4 3 2 3 2 3 3
10 9 9 8 3 4 3 7 4 3 5 5 4 7 8 6 5 5 5 5 4 4 4 5 5 3 3 4 5 6 6 6 6 6 5 4 4 4 4 2 2 2 2 2
6 7 10 4 6 7 8 4 4 5 5 6 8 9 8 7 6 5 6 6 5 4 5 5 3 2 3 5 6 5 5 5 6 6 5 4 3 4 4 2 1 1 1 2
9 9 6 5 7 6 4 5 7 6 7 7 8 8 8 7 7 6 6 6 5 4 6 5 3 2 4 6 5 4 5 5 6 6 5 4 3 3 3 1 0 1 1 2
8 11 11 9 8 8 8 9 9 8 8 6 8 9 9 8 7 7 7 6 5 4 5 6 5 4 5 5 4 3 4 5 5 5 4 4 3 2 2 1 1 1 2 2
10 11 8 9 10 11 10 8 8 8 8 8 8 9 8 8 8 7 7 6 5 5 5 6 5 5 5 4 3 3 4 4 4 4 3 4 3 2 2 2 2 2 3 3
12 10 8 8 7 7 8 9 9 9 9 8 7 9 8 8 7 7 7 6 5 5 6 6 5 6 5 4 2 2 3 4 3 3 3 3 3 3 3 1 3 4 3 3
13 10 9 9 8 8 8 8 8 8 8 8 7 7 7 7 7 6 6 6 6 6 6 6 5 6 5 4 3 3 3 3 3 3 3 2 1 1 3 4 4 3 3 2
10 7 8 8 8 7 7 7 7 6 6 6 7 6 6 6 6 6 7 6 6 5 5 5 5 5 5 3 3 3 3 3 3 3 3 1 1 1 1 1 2 3 3 3
7 7 8 7 6 5 5 5 5 6 7 6 5 6 6 6 7 8 7 5 4 4 5 4 5 5 4 3 2 2 2 2 2 2 2 1 0 1 1 1 1 2 3 3
5 4 5 5 6 6 5 5 6 7 7 6 6 6 6 6 7 6 5 3 3 5 5 4 5 4 3 3 2 2 2 4 3 2 1 0 0 1 1 1 1 1 2 2
3 4 4 5 6 6 6 6 6 7 7 7 7 7 6 5 5 5 5 4 4 4 4 4 4 4 3 3 2 2 2 2 3 2 1 1 0 1 1 1 1 2 2 3
4 5 5 5 5 5 6 5 5 6 6 6 6 5 4 4 5 5 5 4 3 4 4 3 3 3 3 2 2 1 1 1 1 1 1 1 1 1 1 1 1 1 2 3
2 3 3 3 4 3 4 5 5 5 6 5 5 5 5 4 4 4 4 3 4 5 5 3 4 3 2 2 2 1 1 1 1 1 1 2 1 1 1 1 1 2 2 2
2 2 2 3 3 2 4 5 5 5 5 4 4 4 4 4 4 4 4 4 4 4 4 4 3 2 2 2 2 1 1 1 1 1 1 1 1 1 1 1 1 1 2 2
2 3 3 3 4 4 4 4 4 5 5 4 4 4 4 5 4 3 3 5 5 4 4 5 3 2 1 2 2 1 1 1 1 1 1 2 2 2 1 1 2 2 2 1
2 3 3 4 4 5 5 4 4 4 5 4 4 4 4 5 4 4 4 4 5 5 4 2 2 3 3 3 1 1 1 1 1 2 2 2 2 2 2 2 2 2 2 1
2 3 3 4 4 5 5 5 4 4 4 5 5 5 5 5 4 4 5 3 3 5 3 2 3 5 5 2 1 1 2 2 2 2 2 2 2 2 2 2 2 2 1 1
3 3 4 4 3 4 5 5 5 4 5 5 5 5 5 4 4 4 4 6 6 6 3 4 5 5 4 1 1 1 2 2 2 2 2 2 2 2 2 2 2 1 1 1
3 3 3 3 4 4 5 5 5 5 5 4 5 5 4 3 4 5 4 4 5 5 3 4 5 4 2 1 1 2 2 2 3 3 3 3 2 2 2 2 2 2 1 2
3 3 4 4 4 4 4 4 4 4 4 5 5 5 4 3 4 4 3 3 3 3 2 2 2 2 1 1 2 2 2 2 3 3 3 3 3 2 2 2 2 2 2 2
3 3 3 4 3 3 3 3 4 5 4 5 5 5 5 4 4 3 3 3 2 2 2 2 2 1 2 2 2 2 2 2 3 3 3 3 2 2 2 2 2 2 2 2
Wind_Direction
253 261 256 258 262 247 231 235 247 264 269 279 286 290 293 295 300 307 306 307 306 303 303 311 320 321 316 313 317 319 320 320 315 313 310 307 307 275 248 225 217 216 220 218
269 262 259 268 266 256 250 248 249 263 273 275 280 282 284 287 290 295 299 300 300 302 309 315 316 316 316 316 319 317 319 317 317 323 322 315 311 295 279 246 228 223 215 216
272 286 296 269 252 241 237 231 233 252 263 282 294 292 282 281 281 281 284 289 294 298 298 299 302 303 304 307 317 323 323 324 326 328 323 318 314 308 297 261 234 228 223 217
266 320 253 254 222 225 239 252 245 253 268 278 278 288 290 277 272 276 279 287 292 294 297 297 299 303 307 315 325 325 327 327 327 330 324 319 315 301 296 277 226 227 236 232
225 248 270 283 255 206 221 265 252 250 266 277 290 312 303 282 264 257 270 276 281 283 287 299 305 306 312 319 325 327 325 322 322 325 322 318 313 303 290 289 265 238 240 224
219 232 250 256 252 193 148 282 270 240 264 286 314 310 294 297 287 285 288 288 290 294 300 303 303 306 313 314 322 319 316 314 316 318 313 308 307 303 302 286 262 247 234 219
231 242 259 257 218 128 193 254 282 248 262 271 248 251 276 292 290 287 289 288 289 290 292 290 296 302 302 307 303 301 308 314 316 318 313 307 313 314 311 292 273 235 220 224
210 232 253 228 148 187 228 258 278 279 273 271 269 276 285 285 284 285 288 288 284 284 287 289 290 290 293 293 294 306 315 316 316 318 316 320 328 328 323 300 252 205 212 228
208 228 246 202 209 232 243 261 271 272 278 278 278 283 287 284 279 278 276 280 281 277 288 296 288 271 275 285 298 311 317 315 315 319 319 323 327 326 326 303 204 226 211 218
247 256 257 256 256 258 252 254 265 269 276 276 273 277 280 280 278 279 279 278 279 278 285 293 294 286 276 284 297 303 307 312 319 324 326 329 326 317 309 295 270 249 233 220
249 263 278 267 254 256 259 261 267 272 268 265 268 274 274 276 277 276 277 278 273 265 268 277 287 289 285 286 294 303 307 313 319 324 326 328 327 312 298 275 264 252 239 227
247 242 233 252 255 251 251 259 262 269 275 271 259 265 272 273 273 273 274 273 271 269 270 277 285 288 289 288 282 289 304 308 309 318 318 320 324 336 324 301 316 309 286 260
246 256 251 260 266 261 257 264 267 264 263 271 273 266 268 272 277 276 277 275 268 268 271 276 281 284 288 289 283 277 283 293 301 309 310 314 336 357 347 2 9 1 0 332
248 255 265 263 263 269 266 270 274 272 270 269 270 272 270 274 279 276 272 271 273 276 278 278 280 282 288 291 284 282 285 288 296 298 303 308 327 329 320 335 347 355 1 355
253 237 244 261 272 278 279 280 286 287 286 283 278 276 274 273 274 275 276 279 284 281 280 281 281 287 298 296 279 278 284 290 295 297 296 291 335 347 343 342 335 333 342 353
269 262 256 264 272 280 284 280 279 283 285 284 284 282 276 272 277 283 282 275 272 274 275 276 278 286 297 295 283 280 278 288 300 302 303 322 23 360 344 354 338 332 327 323
255 271 274 278 278 280 277 271 269 276 282 281 280 285 288 288 290 292 292 288 278 275 274 271 279 291 293 286 279 274 279 292 299 307 305 307 343 327 306 297 304 312 307 295
229 240 251 257 266 278 285 286 283 284 284 284 291 292 287 280 279 285 295 306 311 306 293 277 276 285 282 278 272 263 264 275 275 268 279 291 302 290 286 267 278 297 313 311
271 267 278 285 281 276 285 293 295 295 296 297 294 289 286 284 285 289 299 301 295 296 297 293 294 298 282 273 277 252 258 270 274 271 277 288 304 305 283 264 272 286 295 300
341 337 332 331 334 319 306 306 307 307 305 301 298 299 301 300 299 297 299 292 279 271 279 288 295 290 273 265 269 251 246 252 240 260 264 267 267 279 280 272 276 285 293 285
341 340 339 335 329 325 318 312 309 308 312 312 299 290 292 298 299 294 294 298 298 289 284 283 286 273 261 259 258 235 239 233 249 260 259 267 268 276 280 277 282 281 280 268
333 331 327 324 323 320 320 318 311 310 315 314 307 300 300 302 304 302 285 272 284 295 302 283 272 266 268 271 236 222 227 224 244 248 246 255 253 260 269 267 273 273 261 235
317 314 313 313 310 308 314 320 318 313 309 307 305 301 295 291 291 287 293 289 286 292 299 279 273 275 277 271 233 221 226 236 242 243 244 249 248 244 252 257 258 257 247 211
309 307 306 307 313 315 315 316 316 313 307 304 300 295 293 296 298 283 272 284 292 293 290 282 283 279 277 260 223 222 233 242 244 247 249 250 248 245 247 246 247 240 227 202
301 301 305 311 310 302 299 308 315 314 312 311 307 304 299 283 277 290 293 287 286 294 294 287 287 286 283 251 230 235 238 242 242 239 238 244 244 243 240 234 229 215 202 194
295 290 283 276 273 281 292 299 302 304 308 311 312 312 310 303 293 292 293 296 293 292 291 285 286 285 263 244 245 248 243 253 266 258 244 243 240 235 232 228 222 206 194 190
288 285 289 295 292 285 286 287 290 295 298 298 302 305 306 305 302 301 298 296 294 285 276 271 267 253 248 250 250 254 254 251 249 246 243 236 231 228 223 220 209 194 182 178
Height
1447 1443 1444 1442 1438 1439 1439 1435 1432 1416 1410 1399 1395 1394 1392 1390 1388 1386 1384 1382 1380 1378 1377 1375 1372 1370 1368 1366 1364 1363 1362 1360 1358 1357 1356 1355 1354 1354 1356 1357 1359 1361 1363 1366
1444 1439 1439 1434 1427 1426 1425 1423 1420 1413 1405 1394 1392 1391 1389 1388 1386 1384 1382 1380 1378 1376 1373 1371 1370 1368 1366 1364 1362 1362 1359 1357 1356 1354 1353 1352 1351 1352 1352 1353 1354 1356 1359 1361
1440 1437 1435 1428 1417 1415 1414 1411 1411 1407 1398 1391 1391 1389 1387 1385 1383 1382 1380 1378 1376 1374 1372 1371 1369 1367 1364 1362 1361 1359 1357 1355 1353 1352 1350 1349 1349 1349 1350 1350 1351 1353 1355 1357
1438 1441 1433 1412 1407 1406 1406 1403 1402 1398 1393 1391 1389 1386 1384 1383 1381 1379 1378 1376 1375 1373 1371 1369 1367 1365 1362 1360 1358 1356 1354 1352 1351 1349 1348 1347 1347 1346 1346 1347 1348 1349 1351 1353
1437 1437 1424 1410 1404 1404 1404 1400 1394 1393 1390 1388 1386 1384 1381 1380 1378 1377 1376 1374 1372 1371 1369 1366 1364 1362 1360 1358 1356 1354 1352 1350 1348 1347 1346 1345 1344 1343 1344 1344 1345 1346 1348 1350
1431 1430 1420 1404 1399 1397 1401 1400 1390 1389 1388 1387 1386 1388 1381 1377 1376 1374 1373 1372 1370 1368 1366 1364 1362 1360 1357 1355 1354 1351 1350 1348 1346 1345 1343 1342 1341 1340 1340 1341 1341 1343 1345 1347
1424 1421 1411 1399 1396 1398 1404 1396 1387 1386 1386 1385 1385 1383 1378 1375 1374 1372 1371 1369 1367 1365 1363 1362 1360 1358 1355 1353 1352 1350 1349 1347 1344 1343 1341 1340 1339 1338 1337 1337 1339 1340 1342 1344
1421 1416 1407 1393 1395 1396 1392 1386 1385 1384 1383 1382 1379 1377 1375 1373 1371 1369 1368 1366 1364 1362 1360 1359 1357 1355 1353 1351 1350 1348 1346 1344 1342 1340 1338 1337 1336 1335 1335 1335 1336 1337 1339 1341
1407 1400 1391 1389 1388 1386 1385 1384 1382 1381 1379 1378 1375 1373 1371 1369 1367 1366 1364 1363 1361 1359 1357 1355 1355 1353 1350 1349 1347 1345 1344 1341 1339 1337 1336 1335 1333 1332 1332 1333 1334 1335 1336 1338
1398 1390 1386 1384 1383 1382 1381 1380 1378 1377 1375 1373 1371 1369 1367 1365 1363 1362 1360 1359 1357 1355 1353 1352 1351 1350 1348 1346 1345 1343 1341 1339 1337 1334 1333 1332 1332 1331 1331 1331 1332 1332 1334 1336
1390 1383 1381 1378 1377 1376 1375 1374 1373 1372 1371 1369 1367 1364 1363 1360 1359 1357 1356 1354 1353 1351 1350 1348 1347 1346 1345 1343 1341 1340 1338 1336 1335 1333 1331 1330 1330 1330 1330 1330 1331 1331 1332 1334
1379 1375 1376 1372 1371 1371 1370 1369 1368 1366 1364 1363 1362 1360 1358 1356 1354 1353 1351 1350 1348 1347 1346 1344 1343 1342 1341 1340 1338 1337 1335 1334 1332 1331 1330 1329 1328 1327 1328 1329 1330 1331 1331 1332
1369 1368 1368 1367 1366 1365 1364 1363 1362 1361 1359 1358 1356 1355 1353 1351 1349 1348 1347 1345 1344 1343 1341 1340 1339 1338 1337 1336 1335 1334 1333 1332 1330 1329 1328 1327 1326 1325 1325 1327 1328 1329 1329 1330
1364 1364 1362 1361 1360 1359 1359 1358 1357 1355 1354 1353 1351 1349 1348 1346 1345 1343 1342 1341 1340 1338 1337 1336 1335 1334 1333 1333 1332 1331 1330 1329 1328 1327 1326 1325 1325 1325 1325 1324 1324 1325 1327 1328
1358 1358 1357 1356 1355 1354 1354 1353 1352 1350 1348 1347 1346 1344 1343 1341 1340 1339 1338 1336 1335 1334 1333 1332 1331 1330 1330 1329 1329 1328 1327 1326 1325 1324 1324 1324 1324 1324 1324 1323 1324 1324 1325 1326
1353 1353 1352 1352 1351 1350 1349 1348 1347 1345 1344 1342 1341 1339 1338 1337 1335 1334 1333 1332 1331 1329 1329 1328 1327 1327 1327 1326 1325 1325 1324 1324 1323 1322 1322 1322 1322 1322 1322 1322 1322 1323 1323 1324
1350 1349 1348 1348 1347 1346 1345 1344 1343 1341 1339 1338 1336 1335 1334 1332 1331 1329 1328 1328 1327 1326 1325 1325 1324 1324 1323 1323 1322 1322 1321 1321 1320 1320 1320 1320 1320 1320 1320 1321 1321 1321 1322 1323
1346 1346 1346 1345 1344 1342 1341 1340 1339 1337 1335 1334 1332 1331 1329 1328 1326 1325 1324 1323 1323 1322 1322 1321 1321 1320 1320 1319 1319 1319 1318 1318 1318 1318 1318 1318 1318 1319 1319 1320 1320 1320 1321 1322
1343 1343 1343 1342 1341 1340 1338 1337 1335 1334 1332 1330 1328 1327 1325 1324 1323 1322 1321 1320 1319 1318 1318 1318 1317 1317 1316 1316 1316 1316 1316 1316 1316 1316 1316 1317 1317 1317 1318 1318 1319 1319 1319 1320
1341 1341 1340 1339 1339 1337 1336 1334 1332 1331 1329 1327 1325 1323 1322 1321 1320 1319 1318 1317 1316 1315 1315 1314 1314 1314 1313 1313 1313 1313 1313 1314 1314 1314 1314 1314 1315 1315 1316 1316 1316 1317 1318 1318
1340 1339 1338 1337 1336 1335 1333 1332 1330 1328 1326 1324 1322 1320 1319 1318 1317 1316 1314 1313 1313 1313 1312 1311 1311 1311 1310 1311 1311 1311 1311 1311 1311 1311 1312 1312 1313 1313 1313 1314 1314 1315 1316 1317
1339 1338 1337 1335 1334 1332 1331 1329 1327 1325 1323 1321 1319 1318 1316 1314 1313 1312 1311 1310 1309 1309 1308 1308 1307 1307 1308 1308 1308 1308 1308 1308 1309 1309 1309 1310 1310 1311 1311 1311 1312 1313 1314 1315
1338 1336 1335 1333 1332 1330 1328 1326 1324 1322 1320 1318 1317 1315 1313 1311 1310 1309 1307 1307 1306 1306 1305 1305 1305 1305 1305 1305 1305 1305 1305 1306 1306 1307 1307 1308 1308 1308 1309 1310 1310 1311 1312 1314
1336 1334 1333 1331 1329 1327 1325 1323 1322 1319 1317 1315 1314 1312 1310 1308 1306 1306 1305 1304 1303 1303 1302 1302 1302 1302 1302 1302 1303 1303 1303 1303 1303 1304 1305 1305 1306 1306 1307 1307 1308 1310 1311 1312
1333 1332 1330 1328 1326 1324 1322 1320 1318 1316 1314 1312 1310 1309 1307 1306 1304 1302 1301 1300 1300 1299 1299 1299 1299 1299 1300 1300 1300 1300 1300 1301 1301 1301 1302 1302 1303 1304 1305 1306 1307 1308 1309 1311
1330 1329 1327 1326 1324 1322 1320 1318 1316 1313 1311 1309 1307 1305 1304 1302 1301 1300 1299 1298 1297 1296 1296 1296 1296 1296 1296 1297 1297 1297 1298 1298 1298 1299 1299 1300 1301 1302 1303 1304 1305 1306 1308 1309
1327 1326 1324 1322 1321 1319 1317 1315 1313 1311 1309 1307 1304 1302 1301 1299 1298 1297 1296 1295 1294 1294 1294 1294 1294 1294 1294 1294 1294 1294 1295 1295 1296 1296 1297 1298 1299 1300 1301 1302 1303 1305 1307 1308